Extreme hitte van: 24-08-2019 09:00 tot: 26-08-2019 00:00 waarschuwing voor: Extreme hitte niveau: Geel info button

Weerstation Grootegast  Weerstation Grootegast


15 daagse weersverwachting Narvik (NO)

  • Overzicht
  • Per uur
  • 15 dagen
  • Extra
  • Vergelijk
  • Kaarten
  • Dagkaart
  • Meer »
  • Info
  • Statistieken
  • Directe link
    Temp 6h Neerslag Wind  
 04:47     21:01    Daglengte: 16:14 Vandaag
08:00
 
2
14:00
12°
 
2
20:00
12°
 
1
 04:51     20:56    Daglengte: 16:05 Morgen
02:00
10°
 
1
08:00
12°
0.9 mm
1
14:00
13°
10.7 mm
1
20:00
12°
16.8 mm
4
 04:55     20:52    Daglengte: 15:57 Maandag 26 Aug
02:00
12°
19.6 mm
5
08:00
11°
20.8 mm
4
14:00
12°
27.0 mm
5
20:00
12°
7.0 mm
1
 04:59     20:47    Daglengte: 15:48 Dinsdag 27 Aug
02:00
12°
7.2 mm
2
Locatie info
Region: Nordland
Latitude: 68.4395°N
Longitude: 17.4301°E
100 masl
Postcode: 8514
Temp/Neerslag /Baro Onweer/Dauwpunt
    Temp Baro 1h Neerslag Dauwpunt Wind UV Bewolking  
 04:47     21:01    Daglengte: 16:14 Vandaag
06:00
Voelt als: 8.4°
1021.2 hPa
49%
7.8°
2
Windvlaag: 3.1 m/s
80%
07:00
Voelt als: 8.1°
1021.7 hPa
25%
7.5°
2
Windvlaag: 3.7 m/s
87%
08:00
Voelt als: 8.2°
1022.1 hPa
55%
7.1°
2
Windvlaag: 3.9 m/s
86%
09:00
Voelt als: 8.4°
1022.6 hPa
58%
6.9°
2
Windvlaag: 3.8 m/s
77%
10:00
10°
Voelt als: 9.0°
1023.2 hPa
59%
6.4°
2
Windvlaag: 3.6 m/s
73%
11:00
10°
1023.6 hPa
57%
5.8°
2
Windvlaag: 2.9 m/s
66%
12:00
11°
1023.9 hPa
17%
5.3°
2
Windvlaag: 3 m/s
54%
13:00
11°
1024.1 hPa
14%
5.1°
2
Windvlaag: 2.6 m/s
33%
14:00
12°
1024.1 hPa
14%
5.0°
2
Windvlaag: 2.6 m/s
15%
15:00
12°
1023.9 hPa
14%
4.7°
2
Windvlaag: 2.5 m/s
18%
16:00
12°
1023.8 hPa
14%
4.5°
2
Windvlaag: 2.4 m/s
18%
17:00
12°
1023.4 hPa
15%
4.3°
1
Windvlaag: 2.6 m/s
15%
18:00
12°
1023.1 hPa
14%
4.2°
1
Windvlaag: 2.5 m/s
14%
19:00
12°
1022.8 hPa
14%
4.3°
1
Windvlaag: 2 m/s
26%
20:00
12°
1022.4 hPa
14%
5.1°
1
Windvlaag: 1.1 m/s
24%
21:00
11°
1022.0 hPa
14%
5.5°
1
Windvlaag: 0.9 m/s
54%
22:00
11°
1021.7 hPa
14%
5.1°
1
Windvlaag: 1.3 m/s
46%
23:00
10°
1021.4 hPa
14%
5.3°
1
Windvlaag: 1.2 m/s
61%
 04:51     20:56    Daglengte: 16:05 Morgen
00:00
10°
1020.7 hPa
14%
4.9°
1
Windvlaag: 1.4 m/s
64%
01:00
10°
1020.2 hPa
14%
5.0°
1
Windvlaag: 1.6 m/s
65%
02:00
10°
1019.6 hPa
14%
4.6°
1
Windvlaag: 2 m/s
89%
03:00
10°
1019.1 hPa
14%
5.9°
1
Windvlaag: 2 m/s
91%
04:00
11°
1018.4 hPa
14%
5.9°
1
Windvlaag: 1.8 m/s
83%
05:00
11°
1017.8 hPa
15%
7.3°
1
Windvlaag: 1.8 m/s
85%
06:00
11°
1017.1 hPa
67%
8.5°
1
Windvlaag: 2.2 m/s
91%
07:00
12°
1016.4 hPa
82%
9.0°
1
Windvlaag: 2.1 m/s
91%
08:00
12°
1015.8 hPa 0.9 mm
82%
9.7°
1
Windvlaag: 1.9 m/s
91%
09:00
12°
1015.2 hPa 1.5 mm
82%
10.3°
1
Windvlaag: 2.3 m/s
90%
10:00
12°
1014.8 hPa 1.8 mm
82%
10.7°
1
Windvlaag: 2.8 m/s
91%
11:00
13°
1014.3 hPa 1.5 mm
82%
11.5°
1
Windvlaag: 2.9 m/s
90%
12:00
13°
1013.7 hPa 1.9 mm
82%
11.8°
1
Windvlaag: 3.1 m/s
89%
13:00
13°
1013.1 hPa 2.0 mm
82%
11.7°
1
Windvlaag: 3.3 m/s
90%
14:00
13°
1012.4 hPa 2.0 mm
81%
11.6°
1
Windvlaag: 3.4 m/s
89%
15:00
14°
1011.8 hPa 1.7 mm
82%
11.8°
1
Windvlaag: 3.3 m/s
91%
16:00
14°
1011.3 hPa 2.3 mm
82%
12.3°
1
Windvlaag: 2.7 m/s
90%
17:00
13°
1010.9 hPa 2.1 mm
82%
11.3°
1
Windvlaag: 2.9 m/s
90%
18:00
13°
1010.3 hPa 2.8 mm
82%
11.1°
1
Windvlaag: 2.5 m/s
91%
19:00
13°
1011.0 hPa 3.6 mm
82%
11.5°
5
Windvlaag: 12.2 m/s
88%
20:00
12°
1011.0 hPa 4.3 mm
82%
10.4°
4
Windvlaag: 11 m/s
75%
21:00
12°
1010.7 hPa
82%
9.9°
3
Windvlaag: 6.7 m/s
88%
22:00
12°
1010.6 hPa 2.7 mm
82%
10.2°
3
Windvlaag: 6.3 m/s
91%
23:00
12°
1009.4 hPa 4.3 mm
100%
9.8°
4
Windvlaag: 6.4 m/s
100%
 04:55     20:52    Daglengte: 15:57 Maandag 26 Aug
00:00
12°
1009.5 hPa 4.9 mm
56%
10.5°
3
Windvlaag: 6.2 m/s
98%
01:00
12°
1009.9 hPa 3.6 mm
100%
11.4°
6
Windvlaag: 9.4 m/s
92%
02:00
12°
1010.7 hPa 4.2 mm
55%
11.2°
5
Windvlaag: 9.2 m/s
93%
03:00
12°
1011.9 hPa 2.9 mm
95%
10.4°
5
Windvlaag: 10.3 m/s
95%
04:00
11°
1012.5 hPa 2.8 mm
100%
10.7°
5
Windvlaag: 9.2 m/s
100%
05:00
11°
1013.0 hPa 4.0 mm
100%
10.3°
5
Windvlaag: 7.6 m/s
96%
06:00
11°
1013.5 hPa 4.1 mm
100%
10.7°
4
Windvlaag: 7.3 m/s
98%
07:00
11°
1014.1 hPa 4.0 mm
100%
11.3°
4
Windvlaag: 6.3 m/s
95%
08:00
11°
1014.9 hPa 3.0 mm
100%
11.3°
4
Windvlaag: 6.7 m/s
99%
09:00
11°
1015.5 hPa 4.2 mm
100%
11.1°
5
Windvlaag: 7.8 m/s
100%
10:00
12°
1016.4 hPa 4.2 mm
100%
11.1°
5
Windvlaag: 9.1 m/s
99%
11:00
12°
1017.2 hPa 5.1 mm
100%
11.3°
5
Windvlaag: 8.6 m/s
100%
12:00
12°
1017.9 hPa 4.6 mm
100%
11.3°
6
Windvlaag: 9.2 m/s
100%
13:00
12°
1018.7 hPa 4.6 mm
100%
11.3°
6
Windvlaag: 9.5 m/s
100%
14:00
12°
1019.4 hPa 4.3 mm
100%
10.8°
5
Windvlaag: 8.9 m/s
100%
15:00
12°
1019.6 hPa 7.0 mm
98%
10.8°
5
Windvlaag: 9.9 m/s
100%
16:00
12°
1019.7 hPa
39%
10.8°
4
Windvlaag: 7.2 m/s
100%
17:00
12°
1019.7 hPa
31%
10.9°
3
Windvlaag: 10.1 m/s
98%
18:00
12°
1019.6 hPa
27%
10.8°
3
Windvlaag: 9.4 m/s
98%
19:00
12°
1019.5 hPa
92%
10.8°
2
Windvlaag: 7.7 m/s
99%
20:00
12°
1019.4 hPa
92%
10.8°
1
Windvlaag: 1 m/s
100%
21:00
12°
1019.2 hPa
100%
10.5°
1
Windvlaag: 4.6 m/s
100%
22:00
12°
1019.1 hPa 7.2 mm
100%
10.3°
2
Windvlaag: 5.8 m/s
100%
23:00
12°
1018.9 hPa
100%
10.1°
1
Windvlaag: 6.2 m/s
96%
 04:59     20:47    Daglengte: 15:48 Dinsdag 27 Aug
00:00
12°
1018.6 hPa
35%
10.0°
2
Windvlaag: 6.8 m/s
92%
01:00
12°
1018.4 hPa
21%
9.9°
2
Windvlaag: 8 m/s
97%
02:00
12°
1018.1 hPa
22%
10.0°
2
Windvlaag: 1.3 m/s
92%
03:00
12°
1017.9 hPa 23.0 mm
100%
10.1°
2
Windvlaag: 9.8 m/s
95%
04:00
13°
1018.0 hPa 23.0 mm
100%
10.3°
2
Windvlaag: 10.5 m/s
91%
05:00
13°
1018.0 hPa 23.0 mm
100%
10.6°
2
Windvlaag: 10.6 m/s
90%
Temp/Neerslag /Baro Onweer/Dauwpunt
    Temp Baro Neerslag Dauwpunt Wind Bewolking  
 04:47     21:01    Daglengte: 16:14 Vandaag
08:00
Voelt als: 8.2°
1022.1 hPa   7.1°
2
86%
11:00
10°
1023.6 hPa   5.8°
2
66%
14:00
12°
1024.1 hPa   5.0°
2
15%
17:00
12°
1023.4 hPa   4.3°
1
15%
20:00
12°
1022.4 hPa   5.1°
1
24%
23:00
10°
1021.4 hPa   5.3°
1
61%
 04:51     20:56    Daglengte: 16:05 Morgen
02:00
10°
1019.6 hPa   4.6°
1
89%
05:00
11°
1017.8 hPa   7.3°
1
85%
08:00
12°
1015.8 hPa 0.9 mm 9.7°
1
91%
11:00
13°
1014.3 hPa 4.9 mm 11.5°
1
90%
14:00
13°
1012.4 hPa 5.9 mm 11.6°
1
89%
17:00
13°
1010.9 hPa 6.1 mm 11.3°
1
90%
20:00
12°
1011.0 hPa 10.7 mm 10.4°
4
75%
23:00
12°
1009.4 hPa 6.9 mm 9.8°
4
100%
 04:55     20:52    Daglengte: 15:57 Maandag 26 Aug
02:00
12°
1010.7 hPa 12.7 mm 11.2°
5
93%
05:00
11°
1013.0 hPa 9.7 mm 10.3°
5
96%
08:00
11°
1014.9 hPa 11.1 mm 11.3°
4
99%
11:00
12°
1017.2 hPa 13.5 mm 11.3°
5
100%
14:00
12°
1019.4 hPa 13.5 mm 10.8°
5
100%
17:00
12°
1019.7 hPa 7.0 mm 10.9°
3
98%
20:00
12°
1019.4 hPa   10.8°
1
100%
23:00
12°
1018.9 hPa 7.2 mm 10.1°
1
96%
 04:59     20:47    Daglengte: 15:48 Dinsdag 27 Aug
02:00
12°
1018.1 hPa   10.0°
2
92%
05:00
13°
1018.0 hPa 68.9 mm 10.6°
2
90%
08:00
15°
1018.2 hPa 69.1 mm 11.3°
3
79%
11:00
17°
1018.9 hPa 28.5 mm 12.4°
3
85%
14:00
18°
1019.0 hPa 28.5 mm 13.1°
3
90%
17:00
18°
1019.1 hPa 28.5 mm 12.9°
2
51%
20:00
17°
1019.3 hPa 28.5 mm 12.7°
1
12%
23:00
15°
1018.9 hPa 28.5 mm 12.0°
2
21%
 05:03     20:43    Daglengte: 15:40 Woensdag 28 Aug
02:00
13°
1018.4 hPa 28.5 mm 11.3°
2
30%
05:00
14°
1017.8 hPa 28.5 mm 11.8°
2
47%
08:00
15°
1017.1 hPa 28.5 mm 12.6°
2
64%
11:00
19°
1017.5 hPa 28.5 mm 13.2°
2
53%
14:00
22°
1017.9 hPa 28.5 mm 13.2°
2
43%
17:00
20°
1017.5 hPa 28.5 mm 14.2°
2
61%
20:00
18°
1017.2 hPa 28.5 mm 14.7°
1
78%
23:00
16°
1017.5 hPa 28.5 mm 13.3°
1
74%
 05:06     20:38    Daglengte: 15:32 Donderdag 29 Aug
02:00
14°
1017.8 hPa 28.5 mm 11.9°
2
69%
05:00
15°
1016.0 hPa 28.5 mm 12.5°
2
62%
08:00
16°
1014.1 hPa 28.5 mm 13.2°
3
55%
11:00
19°
1014.1 hPa 28.5 mm 14.0°
3
60%
14:00
22°
1014.2 hPa 28.8 mm 14.3°
3
66%
17:00
20°
1013.7 hPa 31.1 mm 14.4°
2
58%
20:00
18°
1013.2 hPa 38.8 mm 13.9°
2
50%
23:00
16°
1013.1 hPa 41.8 mm 12.8°
2
46%
 05:10     20:34    Daglengte: 15:24 Vrijdag 30 Aug
02:00
14°
1012.8 hPa 42.8 mm 11.7°
3
42%
05:00
15°
1012.7 hPa 43.5 mm 12.5°
3
59%
08:00
15°
1012.5 hPa 43.7 mm 13.2°
3
76%
11:00
15°
1010.7 hPa 43.7 mm 13.2°
3
84%
14:00
15°
1008.8 hPa 43.9 mm 13.2°
3
91%
17:00
14°
1007.9 hPa 44.3 mm 13.1°
2
92%
20:00
14°
1007.1 hPa 44.3 mm 13.1°
2
92%
23:00
13°
1007.6 hPa 44.3 mm 12.0°
1
92%
 05:14     20:29    Daglengte: 15:15 Zaterdag 31 Aug
02:00
12°
1008.2 hPa 44.3 mm 10.8°
1
92%
05:00
12°
1009.1 hPa   10.5°
1
91%
08:00
12°
1010.1 hPa 88.6 mm 10.3°
2
91%
14:00
14°
1011.8 hPa 88.6 mm 10.3°
2
91%
20:00
13°
1009.4 hPa 88.7 mm 10.8°
1
87%
 05:18     20:25    Daglengte: 15:07 Zondag 01 Sep
02:00
11°
1010.8 hPa 88.7 mm 8.7°
2
81%
08:00
12°
1009.7 hPa 88.7 mm 9.5°
2
88%
14:00
16°
1008.6 hPa 88.7 mm 10.8°
3
90%
20:00
13°
1003.8 hPa 104.6 mm 11.4°
2
91%
 05:22     20:20    Daglengte: 14:58 Maandag 02 Sep
02:00
11°
1009.1 hPa 115.6 mm 10.0°
2
87%
08:00
11°
1011.9 hPa 124.2 mm 8.5°
2
89%
14:00
Voelt als: 7.9°
1017.9 hPa 127.3 mm 4.6°
2
1%
20:00
1020.3 hPa 127.4 mm 4.9°
0
1%
 05:25     20:16    Daglengte: 14:51 Dinsdag 03 Sep
02:00
Voelt als: 7.3°
1008.6 hPa 1.3 mm 6.4°
2
70%
08:00
Voelt als: 7.4°
1008.8 hPa 1.4 mm 6.4°
2
75%
14:00
11°
1009.4 hPa 2.2 mm 6.6°
3
71%
20:00
Voelt als: 7.9°
1009.9 hPa 2.1 mm 6.4°
2
68%
 05:29     20:12    Daglengte: 14:43 Woensdag 04 Sep
02:00
Voelt als: 6.6°
1010.0 hPa 1.5 mm 5.7°
1
65%
08:00
Voelt als: 7.6°
1009.5 hPa 1.5 mm 6.3°
1
69%
14:00
11°
1009.8 hPa 2.5 mm 7.2°
2
76%
20:00
Voelt als: 8.4°
1010.5 hPa 2.2 mm 6.8°
1
80%
 05:33     20:07    Daglengte: 14:34 Donderdag 05 Sep
02:00
Voelt als: 7.2°
1010.8 hPa 1.1 mm 5.9°
1
64%
08:00
Voelt als: 7.8°
1010.3 hPa 1.4 mm 6.2°
1
63%
14:00
11°
1009.8 hPa 1.7 mm 7.0°
1
64%
20:00
1009.9 hPa 2.2 mm 6.7°
1
70%
 05:36     20:03    Daglengte: 14:27 Vrijdag 06 Sep
02:00
Voelt als: 7.4°
1010.4 hPa 1.4 mm 6.1°
1
61%
08:00
Voelt als: 7.5°
1009.9 hPa 1.7 mm 5.7°
1
60%
14:00
11°
1010.1 hPa 1.0 mm 5.5°
1
59%
20:00
1010.0 hPa 1.3 mm 5.7°
0
64%
 05:40     19:58    Daglengte: 14:18 Zaterdag 07 Sep
02:00
1010.4 hPa 1.5 mm 5.1°
1
59%
08:00
Voelt als: 6.9°
1011.0 hPa 1.8 mm 4.9°
1
58%
14:00
10°
Voelt als: 9.6°
1012.1 hPa 1.1 mm 4.9°
1
59%
20:00
1012.8 hPa 0.9 mm 4.5°
1
61%
 05:44     19:54    Daglengte: 14:10 Zondag 08 Sep
02:00
1013.4 hPa 0.6 mm 4.1°
1
57%
  CAPE Lifted Index Hail Supercell Tornado SRH 3km CL BTM PRES CL TOP PRES Swiss DWD icon SMHI TS
 04:47     21:01    Daglengte: 16:14 Vandaag
06:00 1 J/kg 5.3 K 0 % 0 % 0 % 0 m²/s² 0 0 11.27 45
07:00 0 J/kg 6.0 K 0 % 0 % 0 % 0 m²/s² 0 0 12.15 3
08:00 1 J/kg 6.4 K 0 % 0 % 0 % 0 m²/s² 0 0 12.58 3
09:00 2 J/kg 6.4 K 0 % 0 % 0 % 0 m²/s² 0 0 12.58 3
10:00 8 J/kg 6.4 K 0 % 0 % 0 % 0 m²/s² 0 0 12.79 3
11:00 7 J/kg 6.3 K 0 % 0 % 0 % 0 m²/s² 0 0 12.72 3
12:00 6 J/kg 6.3 K 0 % 0 % 0 % 0 m²/s² 0 0 12.72 2
13:00 7 J/kg 6.2 K 0 % 0 % 0 % 0 m²/s² 0 0 12.23 2
14:00 5 J/kg 6.0 K 0 % 0 % 0 % 0 m²/s² 0 0 11.7 2
15:00 0 J/kg 5.8 K 0 % 0 % 0 % 0 m²/s² 0 0 11.23 1
16:00 0 J/kg 5.8 K 0 % 0 % 0 % 0 m²/s² 0 0 10.81 1
17:00 0 J/kg 6.0 K 0 % 0 % 0 % 0 m²/s² 0 0 10.89 3
18:00 0 J/kg 5.7 K 0 % 0 % 0 % 0 m²/s² 0 0 10.71 2
19:00 0 J/kg 5.3 K 0 % 0 % 0 % 0 m²/s² 0 0 10.61 3
20:00 0 J/kg 4.7 K 0 % 0 % 0 % 0 m²/s² 0 0 10.13 2
21:00 0 J/kg 5.2 K 0 % 0 % 0 % 0 m²/s² 0 0 10.93 3
22:00 0 J/kg 5.8 K 0 % 0 % 0 % 0 m²/s² 0 0 12.46 1
23:00 0 J/kg 5.2 K 0 % 0 % 0 % 0 m²/s² 0 0 12.85 3
 04:51     20:56    Daglengte: 16:05 Morgen
00:00 0 J/kg 5.1 K 0 % 0 % 0 % 0 m²/s² 0 0 8.52 3
01:00 0 J/kg 6.2 K 0 % 0 % 0 % 0 m²/s² 0 0 9.17 3
02:00 0 J/kg 6.3 K 0 % 0 % 0 % 0 m²/s² 0 0 6.72 3
03:00 0 J/kg 5.7 K 0 % 0 % 0 % 0 m²/s² 0 0 5.94 3
04:00 0 J/kg 5.7 K 0 % 0 % 0 % 0 m²/s² 0 0 5.94 3
05:00 0 J/kg 4.1 K 0 % 0 % 0 % 0 m²/s² 0 0 4.31 3
06:00 0 J/kg 3.4 K 0 % 0 % 0 % 0 m²/s² 0 0 3.58 3
07:00 0 J/kg 3.2 K 0 % 0 % 0 % 0 m²/s² 0 0 3.38 3
08:00 0 J/kg 2.1 K 0 % 0 % 0 % 0 m²/s² 0 0 2.4 61
09:00 8 J/kg 1.8 K 0 % 0 % 0 % 0 m²/s² 0 0 2.34 61
10:00 83 J/kg 1.2 K 0 % 0 % 0 % 0 m²/s² 0 0 1.92 61
11:00 86 J/kg 1.0 K 0 % 0 % 0 % 0 m²/s² 0 0 1.72 61
12:00 108 J/kg 1.6 K 0 % 0 % 0 % 0 m²/s² 0 0 1.78 61
13:00 74 J/kg 3.7 K 0 % 0 % 0 % 0 m²/s² 0 0 3.91 3
14:00 46 J/kg 3.8 K 0 % 0 % 0 % 0 m²/s² 0 0 4.01 3
15:00 3 J/kg 3.1 K 0 % 0 % 0 % 0 m²/s² 0 0 3.43 61
16:00 12 J/kg 2.1 K 0 % 0 % 0 % 0 m²/s² 0 0 2.34 61
17:00 2 J/kg 1.6 K 0 % 0 % 0 % 0 m²/s² 0 0 1.99 61
18:00 3 J/kg 0.5 K 0 % 0 % 0 % 0 m²/s² 0 0 0.71 61
19:00 92 J/kg 0.9 K 0 % 0 % 0 % 0 m²/s² 0 0 3.09 63
20:00 71 J/kg 2.1 K 0 % 0 % 0 % 0 m²/s² 0 0 6 63
21:00 15 J/kg 2.6 K 0 % 0 % 0 % 0 m²/s² 0 0 4.7 61
22:00 0 J/kg 1.7 K 0 % 0 % 0 % 0 m²/s² 0 0 2 61
23:00 0 J/kg 0.9 K 0 % 0 % 0 % 0 m²/s² 0 0 1.23 3
 04:55     20:52    Daglengte: 15:57 Maandag 26 Aug
00:00 55 J/kg 0.3 K 0 % 0 % 0 % 0 m²/s² 0 0 0.54 3
01:00 129 J/kg -0.2 K 0 % 0 % 0 % 0 m²/s² 0 0 0.28 80
02:00 102 J/kg 0.3 K 0 % 0 % 0 % 0 m²/s² 0 0 1.86 3
03:00 82 J/kg 1.7 K 0 % 0 % 0 % 0 m²/s² 0 0 4.43 3
04:00 82 J/kg 2.7 K 0 % 0 % 0 % 0 m²/s² 0 0 5.7 80
05:00 64 J/kg 3.8 K 0 % 0 % 0 % 0 m²/s² 0 0 6.8 80
06:00 55 J/kg 4.1 K 0 % 0 % 0 % 0 m²/s² 0 0 6.65 80
07:00 49 J/kg 4.0 K 0 % 0 % 0 % 0 m²/s² 0 0 5.95 80
08:00 14 J/kg 4.2 K 0 % 0 % 0 % 0 m²/s² 0 0 5.91 80
09:00 6 J/kg 4.7 K 0 % 0 % 0 % 0 m²/s² 0 0 6.92 80
10:00 28 J/kg 5.3 K 0 % 0 % 0 % 0 m²/s² 0 0 7.64 61
11:00 36 J/kg 5.9 K 0 % 0 % 0 % 0 m²/s² 0 0 8.54 63
12:00 42 J/kg 6.7 K 0 % 0 % 0 % 0 m²/s² 0 0 9.82 61
13:00 30 J/kg 7.4 K 0 % 0 % 0 % 0 m²/s² 0 0 10.7 61
14:00 28 J/kg 8.1 K 0 % 0 % 0 % 0 m²/s² 0 0 10.38 61
15:00 19 J/kg 9.1 K 0 % 0 % 0 % 0 m²/s² 0 0 10.75 3
16:00 16 J/kg 10.5 K 0 % 0 % 0 % 0 m²/s² 0 0 12.51 3
17:00 24 J/kg 11.4 K 0 % 0 % 0 % 0 m²/s² 0 0 12.51 3
18:00 9 J/kg 12.4 K 0 % 0 % 0 % 0 m²/s² 0 0 12.64 3
19:00 4 J/kg 12.5 K 0 % 0 % 0 % 0 m²/s² 0 0 12.74 3
20:00 11 J/kg 12.5 K 0 % 0 % 0 % 0 m²/s² 0 0 12.62 3
21:00 3 J/kg 12.6 K 0 % 0 % 0 % 0 m²/s² 0 0 12.69 61
22:00 13 J/kg 12.8 K 0 % 0 % 0 % 0 m²/s² 0 0 12.83 61
23:00 0 J/kg 10.2 K 0 % 0 % 0 % 0 m²/s² 0 0 10.2 3
 04:59     20:47    Daglengte: 15:48 Dinsdag 27 Aug
00:00 0 J/kg 8.2 K 0 % 0 % 0 % 0 m²/s² 0 0 8.2 3
01:00 0 J/kg 7.4 K 0 % 0 % 0 % 0 m²/s² 0 0 7.4 3
02:00 0 J/kg 7.1 K 0 % 0 % 0 % 0 m²/s² 0 0 7.1 3
03:00 0 J/kg 7.8 K 0 % 0 % 0 % 0 m²/s² 0 0 9.9
04:00 0 J/kg 7.8 K 0 % 0 % 0 % 0 m²/s² 0 0 12.72
05:00 0 J/kg 4.3 K 0 % 0 % 0 % 0 m²/s² 0 0 8.32
Temp Baro Wind Neerslag
  EWN Forecast EWN WRFDA DWD ICON FMI HIRLAM MET Norway GFS
 04:47     21:01    Daglengte: 16:14 Vandaag
08:00 9.2° 1022.1 hPa 2.2 m/s 0.0 mm 8.8° 1020.0 hPa 3.5 m/s 1.0 mm 9.2° 1022.1 hPa 1.8 m/s -1.8 mm 9.0° 1022.0 hPa 2.0 m/s 0.0 mm 10.3° 1022.6 hPa 2.7 m/s 0.0 mm 9.4° 1022.6 hPa 1.2 m/s
11:00 10.4° 1023.6 hPa 1.7 m/s 0.0 mm 11.6° 1021.1 hPa 2.7 m/s 1.1 mm 10.2° 1023.9 hPa 1.4 m/s 0.0 mm 9.1° 1023.6 hPa 1.7 m/s 0.0 mm 11.6° 1023.7 hPa 1.7 m/s 0.0 mm 10.4° 1023.9 hPa 1.6 m/s
14:00 11.8° 1024.1 hPa 1.7 m/s 0.0 mm 13.2° 1021.5 hPa 0.9 m/s 1.1 mm 11.6° 1023.9 hPa 1.2 m/s 0.0 mm 9.4° 1024.7 hPa 1.8 m/s 0.0 mm 14.2° 1024.3 hPa 2.3 m/s 0.0 mm 11.8° 1023.9 hPa 0.3 m/s
17:00 12.5° 1023.4 hPa 1.3 m/s 0.0 mm 14.2° 1020.8 hPa 1.1 m/s 1.1 mm 12.3° 1022.9 hPa 0.5 m/s 0.0 mm 9.8° 1024.6 hPa 1.0 m/s 0.0 mm 14.5° 1023.8 hPa 1.8 m/s 0.0 mm 12.6° 1023.6 hPa 0.2 m/s
20:00 11.7° 1022.4 hPa 0.8 m/s 0.0 mm 12.9° 1020.0 hPa 0.4 m/s 1.1 mm 11.8° 1022.0 hPa 1.1 m/s 0.0 mm 9.2° 1024.2 hPa 1.2 m/s 0.0 mm 12.9° 1022.4 hPa 0.8 m/s 0.0 mm 10.9° 1022.6 hPa 0.5 m/s
23:00 10.2° 1021.4 hPa 1.0 m/s 0.0 mm 11.4° 1018.5 hPa 2.7 m/s 1.1 mm 10.5° 1021.3 hPa 1.2 m/s 0.0 mm 7.3° 1024.4 hPa 1.5 m/s 0.0 mm 11.0° 1020.8 hPa 0.6 m/s 0.0 mm 10.6° 1021.3 hPa 2.1 m/s
 04:51     20:56    Daglengte: 16:05 Morgen
02:00 10.1° 1019.6 hPa 1.2 m/s 0.0 mm 12.4° 1016.5 hPa 2.4 m/s 1.1 mm 10.0° 1019.5 hPa 1.8 m/s 0.0 mm 7.3° 1023.1 hPa 1.3 m/s 0.0 mm 11.9° 1018.8 hPa 0.4 m/s 0.0 mm 11.4° 1019.3 hPa 2.6 m/s
05:00 10.8° 1017.8 hPa 1.4 m/s 0.0 mm 11.2° 1014.7 hPa 2.1 m/s 4.9 mm 11.0° 1017.7 hPa 2.1 m/s 0.0 mm 8.2° 1022.1 hPa 1.7 m/s 0.0 mm 12.0° 1016.7 hPa 0.7 m/s 0.0 mm 11.2° 1017.5 hPa 2.4 m/s
08:00 11.8° 1015.8 hPa 1.2 m/s 0.9 mm 12.3° 1012.1 hPa 2.1 m/s 9.0 mm 12.0° 1016.3 hPa 1.9 m/s 0.1 mm 10.6° 1020.3 hPa 1.6 m/s 0.0 mm 12.0° 1014.2 hPa 0.4 m/s 0.9 mm 11.2° 1015.2 hPa 2.7 m/s
11:00 13.0° 1014.3 hPa 1.3 m/s 4.9 mm 14.3° 1011.3 hPa 5.4 m/s 13.3 mm 13.2° 1014.2 hPa 1.6 m/s 0.2 mm 12.5° 1019.1 hPa 0.9 m/s 0.0 mm 13.1° 1012.7 hPa 0.9 m/s 3.6 mm 12.1° 1013.5 hPa 2.5 m/s
14:00 13.4° 1012.4 hPa 1.5 m/s 5.9 mm 13.0° 1010.4 hPa 4.5 m/s 21.5 mm 14.0° 1012.1 hPa 1.3 m/s 0.1 mm 12.6° 1018.5 hPa 0.7 m/s 0.0 mm 14.0° 1011.8 hPa 1.7 m/s 2.0 mm 12.0° 1011.6 hPa 1.2 m/s
17:00 13.3° 1010.9 hPa 1.1 m/s 6.1 mm 12.9° 1008.6 hPa 5.1 m/s 32.7 mm 13.4° 1009.9 hPa 0.9 m/s 1.7 mm 13.4° 1018.1 hPa 1.0 m/s 0.0 mm 14.1° 1010.2 hPa 0.8 m/s 2.7 mm 12.3° 1010.7 hPa 2.2 m/s
20:00 12.3° 1011.0 hPa 4.2 m/s 10.7 mm 12.2° 1007.6 hPa 8.1 m/s 43.9 mm 12.2° 1009.7 hPa 0.7 m/s 7.6 mm 13.1° 1018.4 hPa 4.8 m/s 0.0 mm 12.5° 1010.6 hPa 4.6 m/s 2.6 mm 12.4° 1009.2 hPa 3.0 m/s
23:00 11.6° 1009.4 hPa 3.7 m/s 6.9 mm 10.9° 1007.1 hPa 9.0 m/s 47.0 mm 11.6° 1011.0 hPa 1.3 m/s 1.6 mm 12.2° 1009.3 hPa 4.0 m/s 2.2 mm 10.8° 1009.4 hPa 2.8 m/s
 04:55     20:52    Daglengte: 15:57 Maandag 26 Aug
02:00 11.7° 1010.7 hPa 5.4 m/s 12.7 mm 11.5° 1007.8 hPa 6.7 m/s 52.4 mm 11.6° 1012.1 hPa 0.6 m/s 0.2 mm 12.1° 1010.7 hPa 6.4 m/s 3.2 mm 10.8° 1009.5 hPa 4.2 m/s
05:00 11.2° 1013.0 hPa 4.7 m/s 9.7 mm 11.1° 1009.3 hPa 6.3 m/s 55.0 mm 11.5° 1013.6 hPa 1.2 m/s 0.9 mm 11.1° 1013.1 hPa 5.4 m/s 0.4 mm 11.0° 1010.9 hPa 3.2 m/s
08:00 11.4° 1014.9 hPa 4.1 m/s 11.1 mm 11.4° 1011.2 hPa 6.6 m/s 56.8 mm 11.9° 1015.2 hPa 1.6 m/s 1.3 mm 11.4° 1015.0 hPa 4.5 m/s 0.5 mm 11.5° 1013.5 hPa 2.5 m/s
11:00 11.6° 1017.2 hPa 4.8 m/s 13.5 mm 12.0° 1013.5 hPa 6.3 m/s 58.4 mm 12.2° 1017.4 hPa 2.5 m/s 3.6 mm 11.2° 1017.7 hPa 5.1 m/s 0.9 mm 11.4° 1015.9 hPa 4.1 m/s
14:00 11.7° 1019.4 hPa 5.5 m/s 13.5 mm 11.6° 1016.0 hPa 6.2 m/s 60.1 mm 12.1° 1019.2 hPa 4.5 m/s 2.5 mm 11.6° 1020.2 hPa 5.6 m/s 1.2 mm 10.9° 1018.2 hPa 4.3 m/s
17:00 12.2° 1019.7 hPa 3.4 m/s 7.0 mm 12.1° 1017.9 hPa 5.8 m/s 62.6 mm 12.6° 1020.6 hPa 1.9 m/s 0.1 mm 12.1° 1019.8 hPa 3.4 m/s 11.9° 1020.2 hPa 2.4 m/s
20:00 12.3° 1019.4 hPa 1.2 m/s 0.0 mm 11.6° 1018.0 hPa 2.4 m/s 63.3 mm 12.1° 1021.0 hPa 0.7 m/s 0.0 mm 12.6° 1019.3 hPa 1.2 m/s 11.2° 1020.1 hPa 0.5 m/s
23:00 11.8° 1018.9 hPa 1.4 m/s 7.2 mm 11.1° 1017.7 hPa 1.6 m/s 63.7 mm 11.6° 1020.5 hPa 1.0 m/s 0.3 mm 12.1° 1018.8 hPa 1.5 m/s 11.0° 1020.4 hPa 2.4 m/s
 04:59     20:47    Daglengte: 15:48 Dinsdag 27 Aug
02:00 11.8° 1018.1 hPa 2.0 m/s 0.0 mm 12.3° 1015.9 hPa 2.7 m/s 66.0 mm 12.1° 1019.3 hPa 2.1 m/s 0.0 mm 11.5° 1018.2 hPa 1.8 m/s 11.0° 1019.7 hPa 3.2 m/s
05:00 13.1° 1018.0 hPa 2.4 m/s 68.9 mm 13.9° 1015.6 hPa 4.2 m/s 68.9 mm 13.0° 1018.5 hPa 2.1 m/s 12.0° 1019.4 hPa 3.4 m/s
08:00 14.6° 1018.2 hPa 2.9 m/s 69.1 mm 15.2° 1015.4 hPa 5.0 m/s 69.1 mm 14.5° 1018.7 hPa 2.5 m/s 13.8° 1018.8 hPa 3.5 m/s
11:00 16.9° 1018.9 hPa 3.0 m/s 28.5 mm 17.1° 1018.9 hPa 3.0 m/s 15.1° 1019.1 hPa 2.9 m/s 28.5 mm
14:00 18.4° 1019.0 hPa 3.2 m/s 28.5 mm 18.4° 1019.0 hPa 3.3 m/s 17.8° 1018.8 hPa 1.7 m/s 28.5 mm
17:00 18.0° 1019.1 hPa 2.1 m/s 28.5 mm 18.0° 1019.2 hPa 2.1 m/s 18.2° 1018.5 hPa 2.1 m/s 28.5 mm
20:00 17.3° 1019.3 hPa 0.9 m/s 28.5 mm 17.6° 1019.4 hPa 0.9 m/s 14.1° 1018.3 hPa 1.2 m/s 28.5 mm
23:00 15.2° 1018.9 hPa 1.5 m/s 28.5 mm 15.4° 1019.0 hPa 1.6 m/s 12.5° 1018.5 hPa 1.1 m/s 28.5 mm
 05:03     20:43    Daglengte: 15:40 Woensdag 28 Aug
02:00 13.2° 1018.4 hPa 2.1 m/s 28.5 mm 13.2° 1018.5 hPa 2.2 m/s 13.3° 1017.5 hPa 0.7 m/s 28.5 mm
05:00 14.2° 1017.8 hPa 2.3 m/s 28.5 mm 14.2° 1017.9 hPa 2.4 m/s 13.4° 1016.7 hPa 1.7 m/s 28.5 mm
08:00 15.5° 1017.1 hPa 2.4 m/s 28.5 mm 15.3° 1017.3 hPa 2.5 m/s 17.4° 1015.0 hPa 1.8 m/s 28.5 mm
11:00 18.6° 1017.5 hPa 2.5 m/s 28.5 mm 18.5° 1017.8 hPa 2.5 m/s 19.9° 1013.9 hPa 1.4 m/s 28.5 mm
14:00 21.6° 1017.9 hPa 2.5 m/s 28.5 mm 21.6° 1018.4 hPa 2.6 m/s 21.8° 1012.9 hPa 1.3 m/s 28.5 mm
17:00 19.9° 1017.5 hPa 1.8 m/s 28.5 mm 19.8° 1018.0 hPa 1.8 m/s 21.5° 1012.4 hPa 1.5 m/s 28.5 mm
20:00 17.9° 1017.2 hPa 1.1 m/s 28.5 mm 18.0° 1017.6 hPa 1.0 m/s 17.0° 1012.3 hPa 1.7 m/s 28.5 mm
23:00 15.7° 1017.5 hPa 1.5 m/s 28.5 mm 15.8° 1018.0 hPa 1.6 m/s 14.9° 1012.6 hPa 0.9 m/s 28.5 mm
 05:06     20:38    Daglengte: 15:32 Donderdag 29 Aug
02:00 13.7° 1017.8 hPa 2.0 m/s 28.5 mm 13.5° 1018.3 hPa 2.1 m/s 15.6° 1012.3 hPa 0.8 m/s 28.5 mm
05:00 14.6° 1016.0 hPa 2.2 m/s 28.5 mm 14.5° 1016.4 hPa 2.4 m/s 15.4° 1011.8 hPa 0.9 m/s 28.5 mm
08:00 15.7° 1014.1 hPa 2.5 m/s 28.5 mm 15.5° 1014.5 hPa 2.6 m/s 17.7° 1010.3 hPa 2.0 m/s 28.5 mm
11:00 19.0° 1014.1 hPa 2.8 m/s 28.5 mm 18.9° 1014.5 hPa 2.8 m/s 20.8° 1009.5 hPa 3.4 m/s 28.5 mm
14:00 22.2° 1014.2 hPa 3.1 m/s 28.8 mm 22.2° 1014.6 hPa 3.0 m/s 21.7° 1009.3 hPa 3.8 m/s 28.8 mm
17:00 19.9° 1013.7 hPa 2.3 m/s 31.1 mm 20.3° 1014.0 hPa 2.4 m/s 16.1° 1009.9 hPa 1.7 m/s 31.1 mm
20:00 18.1° 1013.2 hPa 1.9 m/s 38.8 mm 18.4° 1013.4 hPa 1.7 m/s 14.6° 1011.3 hPa 4.0 m/s 38.8 mm
23:00 16.1° 1013.1 hPa 2.1 m/s 41.8 mm 16.4° 1013.1 hPa 2.2 m/s 13.7° 1012.6 hPa 0.8 m/s 41.8 mm
 05:10     20:34    Daglengte: 15:24 Vrijdag 30 Aug
02:00 14.2° 1012.8 hPa 2.7 m/s 42.8 mm 14.3° 1012.8 hPa 2.8 m/s 13.6° 1013.3 hPa 1.2 m/s 42.8 mm
05:00 14.5° 1012.7 hPa 2.6 m/s 43.5 mm 14.7° 1012.6 hPa 2.8 m/s 13.3° 1013.4 hPa 0.9 m/s 43.5 mm
08:00 14.8° 1012.5 hPa 2.6 m/s 43.7 mm 15.0° 1012.4 hPa 2.7 m/s 13.1° 1013.6 hPa 1.4 m/s 43.7 mm
11:00 14.9° 1010.7 hPa 2.7 m/s 43.7 mm 15.0° 1010.3 hPa 2.8 m/s 13.6° 1014.0 hPa 1.6 m/s 43.7 mm
14:00 14.9° 1008.8 hPa 2.8 m/s 43.9 mm 15.0° 1008.3 hPa 2.9 m/s 13.9° 1014.4 hPa 1.7 m/s 43.9 mm
17:00 14.5° 1007.9 hPa 2.2 m/s 44.3 mm 14.6° 1007.3 hPa 2.2 m/s 13.0° 1014.6 hPa 2.0 m/s 44.3 mm
20:00 14.1° 1007.1 hPa 1.6 m/s 44.3 mm 14.2° 1006.3 hPa 1.6 m/s 12.5° 1015.4 hPa 1.5 m/s 44.3 mm
23:00 12.8° 1007.6 hPa 1.4 m/s 44.3 mm 12.9° 1006.9 hPa 1.6 m/s 11.7° 1015.8 hPa 0.2 m/s 44.3 mm
 05:14     20:29    Daglengte: 15:15 Zaterdag 31 Aug
02:00 11.6° 1008.2 hPa 1.4 m/s 44.3 mm 11.7° 1007.5 hPa 1.5 m/s 10.6° 1015.9 hPa 0.8 m/s 44.3 mm
05:00 11.5° 1009.1 hPa 1.5 m/s 44.3 mm 11.6° 1008.5 hPa 1.6 m/s 10.2° 1015.8 hPa 0.2 m/s 44.3 mm
08:00 11.6° 1010.1 hPa 1.6 m/s 44.3 mm 11.6° 1009.6 hPa 1.7 m/s 12.0° 1015.5 hPa 0.3 m/s 44.3 mm
14:00 14.3° 1011.8 hPa 2.4 m/s 44.3 mm 14.2° 1011.6 hPa 2.5 m/s 15.4° 1014.5 hPa 1.0 m/s 44.3 mm
20:00 13.2° 1009.4 hPa 1.4 m/s 44.3 mm 13.2° 1009.1 hPa 1.4 m/s 12.8° 1013.1 hPa 1.5 m/s 44.3 mm
 05:18     20:25    Daglengte: 15:07 Zondag 01 Sep
02:00 10.9° 1010.8 hPa 1.5 m/s 44.3 mm 11.0° 1010.7 hPa 1.6 m/s 10.1° 1012.0 hPa 0.9 m/s 44.3 mm
08:00 11.7° 1009.7 hPa 1.9 m/s 44.3 mm 11.5° 1009.7 hPa 2.0 m/s 13.5° 1009.6 hPa 0.9 m/s 44.3 mm
14:00 15.8° 1008.6 hPa 2.7 m/s 44.4 mm 15.7° 1008.8 hPa 2.8 m/s 17.5° 1005.8 hPa 1.1 m/s 44.4 mm
20:00 12.7° 1003.8 hPa 2.4 m/s 57.1 mm 12.8° 1003.7 hPa 2.3 m/s 11.7° 1005.0 hPa 4.0 m/s 57.1 mm
 05:22     20:20    Daglengte: 14:58 Maandag 02 Sep
02:00 11.2° 1009.1 hPa 1.5 m/s 58.2 mm 11.3° 1009.5 hPa 1.6 m/s 10.6° 1005.0 hPa 0.8 m/s 58.2 mm
08:00 10.8° 1011.9 hPa 1.9 m/s 63.2 mm 11.0° 1012.0 hPa 1.7 m/s 8.5° 1010.8 hPa 3.6 m/s 63.3 mm
14:00 9.0° 1017.9 hPa 2.0 m/s 63.7 mm 9.0° 1017.9 hPa 2.0 m/s 63.7 mm
20:00 8.5° 1020.3 hPa 0.5 m/s 63.7 mm 8.5° 1020.3 hPa 0.5 m/s 63.7 mm
 05:25     20:16    Daglengte: 14:51 Dinsdag 03 Sep
02:00 7.9° 1008.6 hPa 1.5 m/s 1.3 mm
08:00 8.3° 1008.8 hPa 1.8 m/s 1.4 mm
14:00 10.6° 1009.4 hPa 2.6 m/s 2.2 mm
20:00 8.7° 1009.9 hPa 1.7 m/s 2.1 mm
 05:29     20:12    Daglengte: 14:43 Woensdag 04 Sep
02:00 7.3° 1010.0 hPa 1.5 m/s 1.5 mm
08:00 8.0° 1009.5 hPa 1.3 m/s 1.5 mm
14:00 10.8° 1009.8 hPa 1.5 m/s 2.5 mm
20:00 8.7° 1010.5 hPa 1.3 m/s 2.2 mm
 05:33     20:07    Daglengte: 14:34 Donderdag 05 Sep
02:00 7.2° 1010.8 hPa 0.9 m/s 1.1 mm
08:00 8.1° 1010.3 hPa 1.2 m/s 1.4 mm
14:00 11.2° 1009.8 hPa 1.3 m/s 1.7 mm
20:00 9.0° 1009.9 hPa 1.0 m/s 2.2 mm
 05:36     20:03    Daglengte: 14:27 Vrijdag 06 Sep
02:00 7.4° 1010.4 hPa 0.7 m/s 1.4 mm
08:00 7.8° 1009.9 hPa 1.1 m/s 1.7 mm
14:00 10.7° 1010.1 hPa 1.4 m/s 1.0 mm
20:00 8.3° 1010.0 hPa 0.3 m/s 1.3 mm
 05:40     19:58    Daglengte: 14:18 Zaterdag 07 Sep
02:00 6.5° 1010.4 hPa 0.6 m/s 1.5 mm
08:00 6.9° 1011.0 hPa 0.5 m/s 1.8 mm
14:00 9.8° 1012.1 hPa 1.3 m/s 1.1 mm
20:00 7.2° 1012.8 hPa 0.8 m/s 0.9 mm
 05:44     19:54    Daglengte: 14:10 Zondag 08 Sep
02:00 5.7° 1013.4 hPa 0.6 m/s 0.6 mm
FMI Hirlam - 7.5 km EWN WRFDA - 12 km DWD ICON - 7 km GFS - 25 km Basiskaart






























































Updatetijd (Europe/Amsterdam) Resolutie Lengte Stap
FMI Hirlam 01:00, 07:00, 13:00, 19:00 7.5 km 49h 1h
EWN WRFDA 04:00, 10:00, 16:00, 22:00 12 km 73h 1h
DWD ICON 23:45, 05:45, 11:45, 17:45 7 km 75h 1h
GFS 02:30, 08:30, 14:30, 20:30 25 km 237h 3h
30+ mm
25-30 mm
20-25 mm
15-20 mm
10-15 mm
6-10 mm
4-6 mm
2-4 mm
1-2 mm
0.5-1 mm
0.2-0.5 mm
0.1-0.2 mm
30+ mm
25-30 mm
20-25 mm
15-20 mm
10-15 mm
6-10 mm
4-6 mm
2-4 mm
1-2 mm
0.5-1 mm
0.2-0.5 mm
0.1-0.2 mm
Sneeuwval
Natte sneeuw
Hagel
Vorst
30+ mm
25-30 mm
20-25 mm
15-20 mm
10-15 mm
6-10 mm
4-6 mm
2-4 mm
1-2 mm
0.5-1 mm
0.2-0.5 mm
0.1-0.2 mm
Sneeuwval
Natte sneeuw
Hagel
Vorst
Onweer
50 mm
40 mm
30 mm
26 mm
22 mm
18 mm
14 mm
10 mm
9 mm
8 mm
7 mm
6 mm
5 mm
4.5 mm
4 mm
3.5 mm
3 mm
2.5 mm
2 mm
1.5 mm
1 mm
0.8 mm
0.6 mm
0.4 mm
0.2 mm
0.05 mm
35°
30°
25°
20°
15°
10°
-5°
-10°
-15°
-20°
-25°
-30°
-35°
33> m/s
29 m/s
25 m/s
21 m/s
17 m/s
14 m/s
11 m/s
8 m/s
5 m/s
3 m/s
0 m/s
2600 J/kg
2400 J/kg
2200 J/kg
2000 J/kg
1800 J/kg
1600 J/kg
1400 J/kg
1200 J/kg
1000 J/kg
800 J/kg
600 J/kg
400 J/kg
200 J/kg
70 dBZ
65 dBZ
60 dBZ
55 dBZ
50 dBZ
45 dBZ
40 dBZ
35 dBZ
30 dBZ
25 dBZ
20 dBZ
15 dBZ
10 dBZ
5 dBZ
-1 K
-2 K
-3 K
-4 K
-5 K
-6 K
-7 K
-8 K
-9 K
950 m²/s²
900 m²/s²
850 m²/s²
800 m²/s²
750 m²/s²
700 m²/s²
650 m²/s²
600 m²/s²
550 m²/s²
500 m²/s²
450 m²/s²
400 m²/s²
350 m²/s²
300 m²/s²
250 m²/s²
200 m²/s²
150 m²/s²
100 m²/s²
46 m/s
44 m/s
42 m/s
40 m/s
38 m/s
36 m/s
34 m/s
32 m/s
30 m/s
28 m/s
26 m/s
24 m/s
22 m/s
20 m/s
16 m/s
12 m/s
8 m/s
4 m/s
30 m/s
28 m/s
26 m/s
24 m/s
22 m/s
20 m/s
18 m/s
16 m/s
14 m/s
12 m/s
10 m/s
8 m/s
6 m/s
4 m/s
2 m/s
3.0
2.8
2.6
2.4
2.2
2.0
1.8
1.6
1.4
1.2
1.0
0.8
0.6
0.4
0.2
15
14
13
12
11
10
9
8
7
6
5
4
3
2
1
90%
80%
70%
60%
50%
40%
30%
20%
10%
42
40
38
36
34
32
30
28
26
24
22
20
18
16
14
12
90+ cm
80-90 cm
70-80 cm
60-70 cm
50-60 cm
40-50 cm
30-40 cm
20-30 cm
10-20 cm
1-10 cm
Sneeuwval
Natte sneeuw
Regen
>120 mm
115 mm
110 mm
105 mm
100 mm
95 mm
90 mm
85 mm
80 mm
75 mm
70 mm
65 mm
60 mm
55 mm
50 mm
45 mm
45 mm
40 mm
35 mm
30 mm
25 mm
20 mm
15 mm
10 mm
5 mm
0.1 mm
960 hPa
880 hPa
800 hPa
720 hPa
640 hPa
560 hPa
584 gpdm
568 gpdm
552 gpdm
536 gpdm
520 gpdm
504 gpdm
488 gpdm
Extreem zwaar Noodweer Kans op onweer
15% 15% 5% 50% 15%